{"data":{"norad_id":64573,"intl_designator":"2025-135AX","name":"MUSAT-3ALPHA","alt_names":[],"object_type":"PAYLOAD","status":"ACTIVE","operator":null,"country":"US","launch_date":"2025-06-23","launch_site_code":"AFWTR","launch_vehicle":null,"mission":null,"orbit_class":"UNKNOWN","rcs_meters":null,"size_class":null,"mass_kg":null,"dimensions":null,"purposes":[],"wikipedia_slug":null,"has_3d_model":false,"image_url":null,"decayed_at":null,"tle_current":{"epoch":"2026-09-21T19:56:42.244800Z","epoch_age_seconds":66722,"freshness":"FRESH","line1":"1 64573U 25135AX  26264.83104450  .00000850  00000+0  66410-4 0  9999","line2":"2 64573  97.7160  18.7599 0001184 320.0681  40.0457 15.03747818 68457","mean_motion":15.03747818,"eccentricity":0.0001184,"inclination_deg":97.716,"raan_deg":18.7599,"arg_perigee_deg":320.0681,"mean_anomaly_deg":40.0457,"bstar":6.641e-5,"rev_number":6845,"period_min":95.760737456312,"perigee_km":554.53113338359,"apogee_km":556.17298359264,"semimajor_km":6933.4890584881,"source":"CELESTRAK","updated_at":"2026-09-22T09:00:29.851436Z"}}}